DW6610 Weather Reports


Display with metric or nautical units.
time (UTC)temp
F
wind
direction
speed
MPH
gust
MPH
rain 1hr
in
rain 24hr
in
rain mn
in
humidity
%
barometer
mb
20260507120552 49 139 0.0 2.0 0.00 0.36 0.00 99 1017.4
20260507120054 49 134 0.0 1.0 0.00 0.36 0.00 99 1017.4
20260507115552 48 143 0.0 1.0 0.00 0.37 0.00 99 1017.3
20260507115049 48 0 0.0 1.0 0.00 0.37 0.00 99 1017.3
20260507114559 48 0 0.0 1.0 0.00 0.37 0.00 99 1017.3
20260507114049 48 0 0.0 1.0 0.00 0.37 0.00 99 1017.2
20260507113554 48 143 0.0 1.0 0.00 0.37 0.00 99 1017.1
20260507113052 48 0 0.0 1.0 0.00 0.37 0.00 99 1017.1
20260507112553 48 0 0.0 1.0 0.00 0.37 0.00 99 1017.1
20260507112049 47 0 0.0 1.0 0.00 0.37 0.00 99 1017.1
20260507111600 48 0 0.0 1.0 0.00 0.37 0.00 98 1017.1
20260507111053 48 0 0.0 1.0 0.00 0.37 0.00 99 1017.2
20260507110549 48 0 0.0 1.0 0.00 0.37 0.00 98 1017.1
20260507110056 48 0 0.0 0.0 0.00 0.37 0.00 98 1016.9
20260507105551 48 0 0.0 0.0 0.00 0.58 0.00 98 1017.0
20260507105052 48 0 0.0 0.0 0.00 0.58 0.00 98 1016.8
20260507104555 48 0 0.0 0.0 0.00 0.58 0.00 98 1016.9
20260507104051 48 0 0.0 1.0 0.00 0.58 0.00 98 1017.0
20260507103552 48 0 0.0 1.0 0.00 0.58 0.00 98 1016.9
20260507103054 48 0 0.0 1.0 0.00 0.58 0.00 98 1017.0
20260507102549 48 0 0.0 1.0 0.00 0.58 0.00 98 1016.9
20260507102052 48 0 0.0 1.0 0.00 0.58 0.00 98 1016.9
20260507101607 49 0 0.0 1.0 0.00 0.58 0.00 98 1016.7
20260507101048 49 0 0.0 1.0 0.00 0.58 0.00 98 1016.7
20260507100549 49 0 0.0 0.0 0.00 0.58 0.00 98 1016.7
20260507100055 49 0 0.0 1.0 0.00 0.58 0.00 98 1016.8
20260507095549 49 0 0.0 1.0 0.00 0.70 0.00 98 1016.8
20260507095050 49 0 0.0 1.0 0.00 0.70 0.00 98 1017.0
20260507094555 49 0 0.0 1.0 0.00 0.70 0.00 98 1016.9
20260507094052 49 0 0.0 1.0 0.00 0.70 0.00 98 1016.7
20260507093549 49 0 0.0 0.0 0.00 0.70 0.00 98 1016.8
20260507093057 49 0 0.0 0.0 0.00 0.70 0.00 98 1016.7
20260507092604 49 0 0.0 0.0 0.00 0.70 0.00 98 1016.6
20260507092052 49 0 0.0 0.0 0.00 0.70 0.00 98 1016.6
20260507091557 49 0 0.0 1.0 0.00 0.70 0.00 97 1016.5
20260507091052 49 0 0.0 1.0 0.00 0.70 0.00 97 1016.4
20260507090551 50 0 0.0 0.0 0.00 0.70 0.00 97 1016.4
20260507090052 50 0 0.0 0.0 0.00 0.70 0.00 97 1016.4
20260507085549 50 0 0.0 0.0 0.00 1.23 0.00 97 1016.3
20260507085052 50 0 0.0 0.0 0.00 1.23 0.00 97 1016.4
20260507084555 50 0 0.0 0.0 0.00 1.23 0.00 97 1016.3
20260507084049 51 0 0.0 1.0 0.00 1.23 0.00 97 1016.2
20260507083549 51 0 0.0 1.0 0.00 1.23 0.00 97 1016.1
20260507083053 51 0 0.0 1.0 0.00 1.23 0.00 97 1016.0
20260507082551 51 0 0.0 1.0 0.00 1.23 0.00 98 1016.0
20260507082049 51 0 0.0 1.0 0.00 1.23 0.00 98 1016.0
20260507081552 51 0 0.0 0.0 0.00 1.23 0.00 98 1016.2
20260507081049 51 0 0.0 0.0 0.00 1.23 0.00 98 1016.3
20260507080549 51 0 0.0 0.0 0.00 1.23 0.00 98 1016.4
20260507080055 51 0 0.0 0.0 0.00 1.23 0.00 97 1016.4
20260507075556 51 0 0.0 0.0 0.00 1.40 0.00 97 1016.5
20260507075049 51 0 0.0 0.0 0.00 1.40 0.00 97 1016.5
20260507074557 51 0 0.0 0.0 0.00 1.40 0.00 97 1016.5
20260507074051 51 0 0.0 0.0 0.00 1.40 0.00 97 1016.4
20260507073549 51 0 0.0 0.0 0.00 1.40 0.00 96 1016.4
20260507073052 51 0 0.0 0.0 0.00 1.40 0.00 96 1016.3
20260507072550 52 0 0.0 0.0 0.00 1.40 0.00 96 1016.3
20260507072049 52 0 0.0 1.0 0.00 1.40 0.00 96 1016.5
20260507071551 52 0 0.0 1.0 0.00 1.40 0.00 96 1016.4
20260507071051 52 0 0.0 1.0 0.00 1.40 0.00 96 1016.1
20260507070549 52 0 0.0 1.0 0.00 1.40 0.00 96 1016.3
20260507070056 52 0 0.0 1.0 0.00 1.40 0.00 96 1016.4
20260507065551 52 0 0.0 1.0 0.00 1.74 0.00 96 1016.5
20260507065051 52 0 0.0 1.0 0.00 1.74 0.00 97 1016.5
20260507064607 52 0 0.0 1.0 0.00 1.74 0.00 97 1016.4
20260507064052 52 0 0.0 1.0 0.00 1.74 0.00 97 1016.3
20260507063554 52 0 0.0 1.0 0.00 1.74 0.00 97 1016.3
20260507063058 52 0 0.0 1.0 0.00 1.74 0.00 97 1016.3
20260507062551 52 0 0.0 1.0 0.00 1.74 0.00 97 1016.4
20260507062049 52 0 0.0 1.0 0.00 1.74 0.00 97 1016.6
20260507061556 52 0 0.0 0.0 0.00 1.74 0.00 97 1016.6
20260507061100 52 0 0.0 1.0 0.00 1.74 0.00 97 1016.6
20260507060551 52 0 0.0 1.0 0.00 1.74 0.00 97 1016.5
20260507060058 52 0 0.0 1.0 0.00 1.74 0.00 97 1016.5
20260507055550 53 0 0.0 1.0 0.00 1.74 0.00 97 1016.5
20260507055049 53 0 0.0 1.0 0.00 1.74 0.00 97 1016.5
20260507054606 53 131 0.0 1.0 0.00 1.74 0.00 97 1016.3
20260507054052 53 0 0.0 1.0 0.00 1.74 0.00 97 1016.5
20260507053552 53 195 0.0 2.0 0.00 1.74 0.00 97 1016.3
20260507053055 53 0 0.0 2.0 0.00 1.74 0.00 97 1016.3
20260507052552 53 146 0.0 2.0 0.00 1.74 0.00 97 1016.3
20260507052052 53 140 0.0 2.0 0.00 1.74 0.00 97 1016.4
20260507051555 53 0 0.0 2.0 0.00 1.74 0.00 97 1016.2
20260507051052 53 117 0.0 1.0 0.00 1.74 0.00 97 1016.0
20260507050549 52 132 0.0 1.0 0.00 1.74 0.00 97 1015.9
20260507050056 52 131 0.0 1.0 0.00 1.74 0.00 97 1016.0
20260507045552 52 131 0.0 2.0 0.00 1.74 1.74 97 1016.1
20260507045050 52 155 0.0 2.0 0.00 1.74 1.74 97 1016.0
20260507044554 52 0 0.0 2.0 0.00 1.74 1.74 97 1016.1
20260507044049 52 136 0.0 1.0 0.00 1.74 1.74 97 1016.0
20260507043549 52 0 0.0 1.0 0.00 1.74 1.74 97 1016.3
20260507043059 53 136 0.0 1.0 0.00 1.74 1.74 97 1016.3
20260507042553 52 136 0.0 1.0 0.00 1.74 1.74 97 1016.5
20260507042051 53 0 0.0 1.0 0.00 1.74 1.74 97 1016.3
20260507041600 53 0 0.0 1.0 0.00 1.74 1.74 97 1016.1
20260507041054 53 0 0.0 1.0 0.00 1.74 1.74 97 1016.3
20260507040555 53 0 0.0 1.0 0.00 1.74 1.74 97 1016.2
20260507040058 53 0 0.0 2.0 0.00 1.74 1.74 97 1016.4
20260507035552 53 171 0.0 2.0 0.00 1.74 1.74 96 1016.4
20260507035052 53 160 0.0 0.0 0.00 1.74 1.74 96 1016.6
20260507034557 53 0 0.0 0.0 0.00 1.74 1.74 96 1016.8
20260507034048 53 0 0.0 0.0 0.00 1.74 1.74 96 1017.0
20260507033552 53 0 0.0 2.0 0.00 1.74 1.74 96 1016.9
20260507033054 53 0 0.0 2.0 0.00 1.74 1.74 96 1016.8
20260507032553 53 0 0.0 2.0 0.00 1.74 1.74 96 1016.9
20260507032053 53 0 0.0 2.0 0.00 1.74 1.74 96 1016.8
20260507031551 53 143 0.0 2.0 0.00 1.74 1.74 96 1016.4
20260507031052 53 114 0.0 2.0 0.00 1.74 1.74 96 1016.7
20260507030552 53 0 0.0 2.0 0.00 1.74 1.74 96 1016.6
20260507025551 53 0 0.0 0.0 0.00 1.74 1.74 96 1016.5
20260507025052 53 148 0.0 0.0 0.00 1.74 1.74 96 1016.3
20260507024557 53 0 0.0 2.0 0.00 1.74 1.74 96 1016.2
20260507024053 53 0 0.0 2.0 0.00 1.74 1.74 96 1016.2
20260507023552 53 168 0.0 2.0 0.00 1.74 1.74 96 1016.1
20260507023110 53 188 0.0 5.0 0.00 1.74 1.74 96 1016.0
20260507022552 53 0 1.0 5.0 0.00 1.74 1.74 96 1015.8
20260507022052 53 146 0.0 2.0 0.00 1.74 1.74 97 1015.8
20260507021558 53 0 0.0 2.0 0.00 1.74 1.74 97 1015.9
20260507021053 53 129 0.0 3.0 0.00 1.74 1.74 97 1015.8
20260507020549 53 155 0.0 3.0 0.00 1.74 1.74 97 1015.9
20260507020056 53 155 0.0 3.0 0.00 1.74 1.74 97 1016.0
20260507015551 53 0 0.0 2.0 0.00 1.74 1.74 97 1015.8
20260507015051 53 0 0.0 2.0 0.00 1.74 1.74 97 1015.7
20260507014605 53 115 0.0 2.0 0.00 1.74 1.74 97 1015.7
20260507014052 53 122 0.0 2.0 0.00 1.74 1.74 96 1015.6
20260507013551 53 0 0.0 4.0 0.00 1.74 1.74 96 1015.8
20260507013114 53 0 0.0 4.0 0.00 1.74 1.74 96 1015.2
20260507012552 53 139 0.0 4.0 0.00 1.74 1.74 96 1015.2
20260507012049 53 139 0.0 4.0 0.00 1.74 1.74 96 1015.5
20260507011552 53 150 1.0 4.0 0.00 1.74 1.74 96 1015.1
20260507011051 53 103 0.0 3.0 0.00 1.74 1.74 96 1015.1
20260507010552 53 122 0.0 3.0 0.00 1.74 1.74 96 1015.4
20260507010056 53 155 1.0 3.0 0.00 1.74 1.74 96 1015.1
20260507005552 53 106 1.0 3.0 0.01 1.74 1.74 96 1015.2
20260507005051 53 174 0.0 2.0 0.01 1.74 1.74 96 1015.3
20260507004553 53 150 0.0 3.0 0.01 1.74 1.74 96 1015.7
20260507004051 53 162 0.0 4.0 0.01 1.74 1.74 96 1015.8
20260507003549 53 89 0.0 4.0 0.01 1.74 1.74 96 1015.7
20260507003056 54 116 1.0 2.0 0.01 1.74 1.74 96 1015.7
20260507002551 54 143 0.0 3.0 0.01 1.74 1.74 96 1015.6
20260507002050 54 195 1.0 3.0 0.01 1.74 1.74 96 1015.8
20260507001609 54 158 0.0 2.0 0.01 1.74 1.74 96 1015.4
20260507001054 54 138 0.0 2.0 0.01 1.74 1.74 96 1015.6
20260507000549 54 0 0.0 3.0 0.01 1.74 1.74 96 1015.7
20260507000052 54 134 0.0 3.0 0.01 1.74 1.74 96 1015.5
20260506235550 54 166 0.0 2.0 0.00 1.73 1.73 95 1015.1
20260506235046 54 150 0.0 2.0 0.00 1.73 1.73 95 1015.4
20260506234552 54 143 0.0 2.0 0.00 1.73 1.73 95 1015.9
20260506234050 54 105 0.0 2.0 0.00 1.73 1.73 95 1015.7
20260506233549 54 140 0.0 3.0 0.00 1.73 1.73 95 1015.9
20260506233051 54 0 0.0 3.0 0.00 1.73 1.73 95 1016.1
20260506232549 54 138 1.0 3.0 0.00 1.73 1.73 95 1015.8
20260506232050 54 0 0.0 3.0 0.00 1.73 1.73 95 1015.4
20260506231551 54 0 1.0 3.0 0.00 1.73 1.73 95 1015.3
20260506231050 54 154 0.0 4.0 0.00 1.73 1.73 95 1015.5
20260506230549 54 142 0.0 4.0 0.00 1.73 1.73 95 1015.5
20260506230055 54 103 1.0 4.0 0.00 1.73 1.73 94 1015.4
20260506225547 54 168 1.0 3.0 0.00 1.73 1.73 95 1015.4
20260506225047 54 127 0.0 4.0 0.00 1.73 1.73 95 1015.0
20260506224552 54 153 1.0 5.0 0.00 1.73 1.73 94 1014.9
20260506224050 54 120 0.0 5.0 0.00 1.73 1.73 94 1014.6
20260506223549 54 174 2.0 5.0 0.00 1.73 1.73 94 1014.6
20260506223111 54 177 1.0 6.0 0.00 1.73 1.73 94 1014.5
20260506222548 55 152 2.0 6.0 0.00 1.73 1.73 94 1014.2
20260506222052 55 182 2.0 6.0 0.00 1.73 1.73 94 1014.2
20260506221555 55 212 0.0 6.0 0.00 1.73 1.73 95 1014.2
20260506221050 55 165 1.0 6.0 0.00 1.73 1.73 95 1014.1
20260506220550 55 136 1.0 6.0 0.01 1.73 1.73 95 1014.1
20260506220056 55 138 2.0 6.0 0.01 1.73 1.73 95 1014.3
20260506215549 55 141 1.0 5.0 0.01 1.73 1.73 95 1014.3
20260506215047 55 87 1.0 5.0 0.02 1.73 1.73 95 1014.3
20260506214558 55 147 1.0 5.0 0.02 1.73 1.73 96 1014.1
20260506214052 55 160 1.0 5.0 0.02 1.73 1.73 95 1014.3
20260506213550 55 55 1.0 5.0 0.02 1.73 1.73 96 1014.4
20260506213054 55 172 1.0 5.0 0.02 1.73 1.73 95 1014.1
20260506212549 55 153 1.0 4.0 0.03 1.73 1.73 95 1014.3
20260506212049 55 0 1.0 2.0 0.04 1.73 1.73 95 1015.0
20260506211552 55 134 0.0 2.0 0.04 1.73 1.73 95 1015.4
20260506211050 55 153 0.0 2.0 0.05 1.73 1.73 95 1015.5
20260506210546 55 153 0.0 2.0 0.04 1.72 1.72 95 1015.8
20260506210109 55 126 0.0 2.0 0.05 1.72 1.72 94 1015.8
20260506205550 55 94 1.0 3.0 0.05 1.72 1.72 94 1015.6
20260506205050 55 124 0.0 4.0 0.04 1.71 1.71 94 1015.4
20260506204555 55 133 1.0 4.0 0.04 1.71 1.71 94 1015.2
20260506204052 55 169 1.0 5.0 0.04 1.71 1.71 94 1015.2
20260506203551 55 118 0.0 5.0 0.04 1.71 1.71 95 1015.3
20260506203101 55 193 1.0 5.0 0.04 1.71 1.71 94 1015.0
20260506202552 55 162 0.0 3.0 0.03 1.70 1.70 95 1015.3
20260506202052 54 199 0.0 3.0 0.02 1.69 1.69 94 1015.4
20260506201558 55 209 1.0 4.0 0.02 1.69 1.69 93 1015.5
20260506201053 55 0 1.0 4.0 0.01 1.68 1.68 93 1016.4
20260506200551 55 116 1.0 2.0 0.01 1.68 1.68 93 1015.8
20260506200136 55 156 1.0 2.0 0.00 1.67 1.67 92 1016.2
20260506195552 55 120 0.0 3.0 0.00 1.67 1.67 92 1016.2
20260506195052 55 108 1.0 3.0 0.00 1.67 1.67 92 1016.2
20260506194604 55 148 0.0 6.0 0.00 1.67 1.67 92 1016.1
20260506194051 55 91 0.0 6.0 0.00 1.67 1.67 92 1015.9
20260506193551 55 131 1.0 5.0 0.00 1.67 1.67 92 1016.0
20260506193058 55 108 1.0 4.0 0.00 1.67 1.67 92 1016.1
20260506192551 56 127 1.0 3.0 0.00 1.67 1.67 92 1016.2
20260506192051 56 118 0.0 3.0 0.00 1.67 1.67 93 1016.2
20260506191551 56 179 1.0 3.0 0.00 1.67 1.67 93 1016.0
20260506191052 55 260 0.0 1.0 0.00 1.67 1.67 92 1016.1
20260506190551 55 141 0.0 3.0 0.00 1.67 1.67 93 1016.3
20260506190052 55 111 0.0 4.0 0.00 1.67 1.67 93 1016.4
20260506185553 55 93 0.0 4.0 0.00 1.69 1.67 93 1016.2
20260506185052 55 177 1.0 3.0 0.00 1.69 1.67 93 1015.9
20260506184554 55 141 1.0 3.0 0.00 1.69 1.67 94 1015.7
20260506184053 55 0 0.0 3.0 0.00 1.69 1.67 93 1015.5
20260506183552 55 188 0.0 5.0 0.00 1.69 1.67 93 1015.7
20260506183055 55 129 0.0 5.0 0.00 1.69 1.67 94 1015.8
20260506182551 55 137 1.0 3.0 0.00 1.69 1.67 94 1015.6
20260506182053 55 158 1.0 4.0 0.00 1.69 1.67 94 1015.6
20260506181553 55 162 0.0 4.0 0.00 1.69 1.67 95 1015.6
20260506181053 55 129 1.0 5.0 0.00 1.69 1.67 95 1015.7
20260506180552 55 179 1.0 5.0 0.00 1.69 1.67 95 1015.7
20260506180105 55 108 1.0 4.0 0.00 1.69 1.67 97 1015.5
20260506175553 55 108 1.0 4.0 0.00 1.70 1.67 97 1015.6
20260506175051 54 120 1.0 4.0 0.00 1.70 1.67 97 1015.5
20260506174555 54 118 1.0 4.0 0.00 1.70 1.67 97 1015.2
20260506174049 53 181 1.0 3.0 0.00 1.70 1.67 97 1015.5
20260506173552 53 124 0.0 3.0 0.00 1.70 1.67 97 1015.7
20260506173107 53 139 0.0 4.0 0.04 1.70 1.67 97 1015.7
20260506172553 53 169 1.0 5.0 0.05 1.70 1.67 97 1015.5
20260506172051 53 144 1.0 5.0 0.05 1.70 1.67 97 1015.8
20260506171557 53 100 0.0 5.0 0.07 1.70 1.67 98 1016.0
20260506171049 53 155 2.0 5.0 0.06 1.69 1.66 98 1015.9
20260506170549 52 146 1.0 4.0 0.06 1.69 1.66 97 1015.8
20260506170058 52 149 1.0 3.0 0.06 1.69 1.66 97 1015.9
20260506165549 52 147 1.0 3.0 0.06 1.84 1.66 98 1016.0
20260506165049 52 141 0.0 4.0 0.06 1.83 1.65 98 1016.0
20260506164553 52 110 0.0 4.0 0.05 1.82 1.64 98 1015.8
20260506164051 52 122 1.0 4.0 0.05 1.81 1.63 97 1016.3
20260506163549 52 116 1.0 4.0 0.05 1.81 1.63 98 1015.7
20260506163053 51 115 0.0 3.0 0.06 1.81 1.63 98 1015.5
20260506162553 51 149 1.0 4.0 0.05 1.80 1.62 98 1015.6
20260506162051 51 109 1.0 4.0 0.06 1.80 1.62 98 1015.5
20260506161557 51 150 1.0 4.0 0.05 1.78 1.60 98 1015.3
20260506161049 51 109 1.0 4.0 0.05 1.78 1.60 98 1015.4
20260506160549 51 165 1.0 6.0 0.05 1.78 1.60 98 1015.2
20260506160106 51 163 2.0 6.0 0.05 1.78 1.60 97 1015.1
20260506155548 52 117 1.0 5.0 0.05 2.09 1.60 97 1015.2
20260506155050 52 193 1.0 5.0 0.05 2.08 1.59 97 1015.0
20260506154600 52 109 2.0 5.0 0.06 2.08 1.59 98 1015.2
20260506154049 52 127 0.0 5.0 0.06 2.08 1.58 99 1015.5
20260506153548 52 153 2.0 5.0 0.07 2.08 1.58 98 1014.6
20260506153057 52 200 1.0 5.0 0.08 2.07 1.57 98 1015.3
20260506152548 52 119 1.0 4.0 0.08 2.07 1.57 98 1015.1
20260506152048 51 129 1.0 3.0 0.09 2.06 1.56 98 1014.6
20260506151559 51 119 1.0 3.0 0.10 2.05 1.55 98 1015.3
20260506151049 51 162 1.0 2.0 0.12 2.05 1.55 98 1015.2
20260506150552 52 145 0.0 2.0 0.14 2.05 1.55 98 1015.3
20260506150105 52 122 0.0 3.0 0.15 2.05 1.55 98 1015.4
20260506145553 51 129 1.0 4.0 0.15 2.28 1.55 98 1015.1
20260506145048 52 120 0.0 4.0 0.15 2.27 1.54 98 1015.4
20260506144602 51 0 1.0 4.0 0.15 2.26 1.53 98 1014.9
20260506144051 51 105 0.0 3.0 0.14 2.25 1.52 98 1015.1
20260506143551 51 167 1.0 4.0 0.13 2.24 1.51 98 1014.7
20260506143058 52 174 0.0 4.0 0.11 2.22 1.49 98 1015.0
20260506142548 52 169 1.0 4.0 0.11 2.22 1.49 98 1015.1
20260506142053 52 0 0.0 2.0 0.09 2.20 1.47 98 1014.7
20260506141559 52 148 0.0 2.0 0.07 2.18 1.45 97 1014.2
20260506141051 52 146 0.0 5.0 0.05 2.16 1.43 98 1015.0
20260506140553 52 176 1.0 5.0 0.03 2.14 1.41 97 1014.8
20260506140056 52 264 2.0 5.0 0.02 2.13 1.40 97 1014.2
20260506135551 52 103 0.0 3.0 0.02 2.24 1.40 97 1014.8
20260506135051 52 0 1.0 3.0 0.01 2.23 1.39 97 1014.6
20260506134614 52 179 0.0 2.0 0.00 2.22 1.38 98 1013.9
20260506134053 52 131 0.0 2.0 0.00 2.22 1.38 97 1014.0
20260506133551 52 141 1.0 2.0 0.00 2.22 1.38 97 1014.4
20260506133054 52 155 0.0 2.0 0.00 2.22 1.38 97 1014.0
20260506132551 52 0 0.0 3.0 0.00 2.22 1.38 98 1014.0
20260506132051 52 105 0.0 3.0 0.00 2.22 1.38 98 1014.2
20260506131607 52 0 1.0 5.0 0.00 2.22 1.38 98 1013.8
20260506131049 52 132 1.0 5.0 0.00 2.22 1.38 98 1013.5
20260506130552 52 103 1.0 5.0 0.00 2.22 1.38 98 1013.7
20260506130055 52 139 0.0 4.0 0.00 2.22 1.38 98 1013.8
20260506125551 52 153 1.0 4.0 0.00 2.22 1.38 98 1013.8
20260506125051 52 139 2.0 4.0 0.00 2.22 1.38 98 1013.2
20260506124553 52 162 0.0 3.0 0.00 2.22 1.38 98 1012.6
20260506124051 52 179 0.0 4.0 0.00 2.22 1.38 98 1013.0
20260506123552 51 0 1.0 4.0 0.00 2.22 1.38 98 1012.6
20260506123053 51 165 1.0 4.0 0.00 2.22 1.38 98 1012.6
20260506122551 51 155 1.0 3.0 0.00 2.22 1.38 98 1012.8
20260506122051 51 175 0.0 3.0 0.00 2.22 1.38 98 1012.7
20260506121549 51 119 0.0 3.0 0.00 2.22 1.38 98 1012.6
20260506121051 51 153 0.0 3.0 0.00 2.22 1.38 98 1012.6